• In Deutschland
  • Länderverzeichnis
  • Für 7 Tage
  • Wassertemperatur
  • Satellitenkarten
  • Wetterkarte
  • Widgets
  • user-avatar
    Anmelden

    Stündliche Wetter Lahr

    Heute, 19 Februar, Montag

    Zeit Temperatur Niederschläge Wind Luftdruck Luftfeuchtigkeit
    00:00 -1°C° 0 mm 1 m/S 751 mmHg 89%
    01:00 -1°C° 0 mm 1 m/S 751 mmHg 89%
    02:00 -1°C° 0 mm 1 m/S 750 mmHg 89%
    03:00 -2°C° 0 mm 1 m/S 750 mmHg 88%
    04:00 -3°C° 0 mm 0 m/S 750 mmHg 88%
    05:00 -3°C° 0 mm 0 m/S 750 mmHg 88%
    06:00 -3°C° 0 mm 0 m/S 749 mmHg 87%
    07:00 -3°C° 0 mm 0 m/S 749 mmHg 87%
    08:00 -1°C° 0 mm 0 m/S 749 mmHg 83%
    09:00 0°C° 0 mm 0 m/S 749 mmHg 78%
    10:00 +2°C° 0 mm 0 m/S 749 mmHg 74%
    11:00 +3°C° 0 mm 0 m/S 748 mmHg 71%
    12:00 +4°C° 0 mm 0 m/S 748 mmHg 68%
    13:00 +5°C° 0 mm 0 m/S 748 mmHg 64%
    14:00 +5°C° 0 mm 0 m/S 747 mmHg 64%
    15:00 +6°C° 0 mm 1 m/S 747 mmHg 64%
    16:00 +6°C° 0 mm 1 m/S 747 mmHg 64%
    17:00 +5°C° 0 mm 1 m/S 747 mmHg 69%
    18:00 +2°C° 0 mm 0 m/S 747 mmHg 74%
    19:00 +1°C° 0 mm 0 m/S 747 mmHg 78%
    20:00 +1°C° 0 mm 0 m/S 747 mmHg 79%
    21:00 0°C° 0 mm 0 m/S 747 mmHg 80%
    22:00 0°C° 0 mm 0 m/S 746 mmHg 81%
    23:00 0°C° 0 mm 0 m/S 746 mmHg 81%

    Morgen, 20 Februar, Dienstag

    Zeit Temperatur Niederschläge Wind Luftdruck Luftfeuchtigkeit
    00:00 0°C° 0 mm 0 m/S 746 mmHg 81%
    01:00 -1°C° 0 mm 0 m/S 746 mmHg 81%
    02:00 -1°C° 0 mm 0 m/S 746 mmHg 81%
    03:00 -1°C° 0 mm 0 m/S 746 mmHg 82%
    04:00 -1°C° 0 mm 0 m/S 745 mmHg 82%
    05:00 -1°C° 0 mm 0 m/S 745 mmHg 82%
    06:00 -1°C° 0 mm 0 m/S 745 mmHg 83%
    07:00 0°C° 0 mm 1 m/S 745 mmHg 83%
    08:00 +1°C° 0 mm 1 m/S 745 mmHg 79%
    09:00 +2°C° 0 mm 1 m/S 745 mmHg 75%
    10:00 +3°C° 0 mm 1 m/S 745 mmHg 71%
    11:00 +4°C° 0 mm 1 m/S 745 mmHg 68%
    12:00 +4°C° 0 mm 2 m/S 745 mmHg 65%
    13:00 +5°C° 0 mm 2 m/S 745 mmHg 61%
    14:00 +5°C° 0 mm 2 m/S 745 mmHg 62%
    15:00 +3°C° 0 mm 3 m/S 745 mmHg 62%
    16:00 +3°C° 0 mm 3 m/S 745 mmHg 63%
    17:00 +2°C° 0 mm 3 m/S 745 mmHg 68%
    18:00 +1°C° 0 mm 2 m/S 745 mmHg 74%
    19:00 -1°C° 0 mm 2 m/S 746 mmHg 79%
    20:00 -1°C° 0 mm 2 m/S 746 mmHg 81%
    21:00 -2°C° 0 mm 2 m/S 746 mmHg 83%
    22:00 -2°C° 0 mm 2 m/S 747 mmHg 85%
    23:00 -2°C° 0 mm 2 m/S 747 mmHg 86%

    übermorgen, 21 Februar, Mittwoch

    Zeit Temperatur Niederschläge Wind Luftdruck Luftfeuchtigkeit
    00:00 -2°C° 0 mm 2 m/S 747 mmHg 87%
    01:00 -3°C° 0 mm 2 m/S 747 mmHg 88%
    02:00 -2°C° 0 mm 2 m/S 747 mmHg 89%
    03:00 -2°C° 0 mm 2 m/S 747 mmHg 89%
    04:00 -2°C° 0 mm 3 m/S 747 mmHg 90%
    05:00 -2°C° 0 mm 3 m/S 747 mmHg 90%
    06:00 -2°C° 0 mm 3 m/S 748 mmHg 90%
    07:00 -2°C° 0 mm 3 m/S 748 mmHg 89%
    08:00 -1°C° 0 mm 3 m/S 748 mmHg 84%
    09:00 -1°C° 0 mm 4 m/S 748 mmHg 80%
    10:00 -1°C° 0 mm 4 m/S 748 mmHg 75%
    11:00 0°C° 0 mm 4 m/S 747 mmHg 70%
    12:00 +1°C° 0 mm 4 m/S 747 mmHg 66%
    13:00 +2°C° 0 mm 5 m/S 747 mmHg 62%
    14:00 +3°C° 0 mm 4 m/S 747 mmHg 61%
    15:00 +3°C° 0 mm 4 m/S 746 mmHg 61%
    16:00 +3°C° 0 mm 4 m/S 746 mmHg 61%
    17:00 +1°C° 0 mm 4 m/S 746 mmHg 64%
    18:00 +1°C° 0 mm 3 m/S 746 mmHg 68%
    19:00 0°C° 0 mm 3 m/S 746 mmHg 72%
    20:00 -1°C° 0 mm 3 m/S 746 mmHg 73%
    21:00 -1°C° 0 mm 3 m/S 746 mmHg 74%
    22:00 -1°C° 0 mm 3 m/S 746 mmHg 75%
    23:00 -2°C° 0 mm 4 m/S 746 mmHg 76%

    22 Februar, Donnerstag

    Zeit Temperatur Niederschläge Wind Luftdruck Luftfeuchtigkeit
    00:00 -2°C° 0 mm 4 m/S 745 mmHg 77%
    01:00 -3°C° 0 mm 4 m/S 745 mmHg 78%
    02:00 -3°C° 0 mm 4 m/S 744 mmHg 78%
    03:00 -3°C° 0 mm 4 m/S 744 mmHg 78%
    04:00 -4°C° 0 mm 5 m/S 743 mmHg 78%
    05:00 -4°C° 0 mm 5 m/S 743 mmHg 78%
    06:00 -4°C° 0 mm 5 m/S 743 mmHg 78%
    07:00 -4°C° 0 mm 5 m/S 743 mmHg 78%
    08:00 -4°C° 0 mm 5 m/S 743 mmHg 75%
    09:00 -3°C° 0 mm 6 m/S 743 mmHg 72%
    10:00 -3°C° 0 mm 6 m/S 743 mmHg 69%
    11:00 -2°C° 0 mm 6 m/S 742 mmHg 67%
    12:00 -1°C° 0 mm 6 m/S 742 mmHg 65%
    13:00 -1°C° 0 mm 6 m/S 742 mmHg 63%
    14:00 +1°C° 0 mm 6 m/S 742 mmHg 63%
    15:00 +1°C° 0 mm 6 m/S 742 mmHg 64%
    16:00 +1°C° 0 mm 6 m/S 741 mmHg 64%
    17:00 -1°C° 0 mm 6 m/S 742 mmHg 66%
    18:00 -1°C° 0 mm 5 m/S 742 mmHg 68%
    19:00 -1°C° 0 mm 5 m/S 742 mmHg 70%
    20:00 -2°C° 0 mm 5 m/S 742 mmHg 71%
    21:00 -2°C° 0 mm 5 m/S 742 mmHg 72%
    22:00 -2°C° 0 mm 5 m/S 742 mmHg 73%
    23:00 -4°C° 0 mm 5 m/S 742 mmHg 73%

    23 Februar, Freitag

    Zeit Temperatur Niederschläge Wind Luftdruck Luftfeuchtigkeit
    00:00 -4°C° 0 mm 5 m/S 742 mmHg 73%
    01:00 -3°C° 0 mm 4 m/S 742 mmHg 74%
    02:00 -3°C° 0 mm 4 m/S 741 mmHg 74%
    03:00 -3°C° 0 mm 4 m/S 741 mmHg 74%
    04:00 -3°C° 0 mm 4 m/S 741 mmHg 75%
    05:00 -3°C° 0 mm 4 m/S 741 mmHg 75%
    06:00 -4°C° 0 mm 4 m/S 741 mmHg 75%
    07:00 -4°C° 0 mm 4 m/S 742 mmHg 76%
    08:00 -3°C° 0 mm 4 m/S 742 mmHg 73%
    09:00 -2°C° 0 mm 4 m/S 742 mmHg 70%
    10:00 -2°C° 0 mm 5 m/S 742 mmHg 67%
    11:00 -1°C° 0 mm 5 m/S 742 mmHg 65%
    12:00 0°C° 0 mm 5 m/S 742 mmHg 63%
    13:00 0°C° 0 mm 5 m/S 742 mmHg 61%
    14:00 0°C° 0 mm 5 m/S 742 mmHg 60%
    15:00 0°C° 0 mm 5 m/S 742 mmHg 60%
    16:00 0°C° 0 mm 5 m/S 742 mmHg 59%
    17:00 -1°C° 0 mm 5 m/S 742 mmHg 61%
    18:00 -2°C° 0 mm 4 m/S 743 mmHg 62%
    19:00 -3°C° 0 mm 4 m/S 743 mmHg 63%
    20:00 -4°C° 0 mm 4 m/S 744 mmHg 62%
    21:00 -4°C° 0 mm 4 m/S 744 mmHg 62%
    22:00 -5°C° 0 mm 4 m/S 745 mmHg 61%
    23:00 -5°C° 0 mm 4 m/S 745 mmHg 61%

    24 Februar, Samstag

    Zeit Temperatur Niederschläge Wind Luftdruck Luftfeuchtigkeit
    00:00 -7°C° 0 mm 4 m/S 745 mmHg 61%
    01:00 -6°C° 0 mm 3 m/S 745 mmHg 61%
    02:00 -7°C° 0 mm 3 m/S 745 mmHg 60%
    03:00 -7°C° 0 mm 3 m/S 746 mmHg 60%
    04:00 -7°C° 0 mm 3 m/S 746 mmHg 59%
    05:00 -7°C° 0 mm 3 m/S 746 mmHg 59%
    06:00 -8°C° 0 mm 3 m/S 747 mmHg 58%
    07:00 -8°C° 0 mm 3 m/S 747 mmHg 58%
    08:00 -8°C° 0 mm 4 m/S 747 mmHg 56%
    09:00 -7°C° 0 mm 4 m/S 748 mmHg 54%
    10:00 -7°C° 0 mm 5 m/S 748 mmHg 52%
    11:00 -6°C° 0 mm 5 m/S 748 mmHg 50%
    12:00 -5°C° 0 mm 5 m/S 748 mmHg 48%
    13:00 -4°C° 0 mm 5 m/S 748 mmHg 46%
    14:00 -5°C° 0 mm 5 m/S 747 mmHg 46%
    15:00 -5°C° 0 mm 5 m/S 747 mmHg 47%
    16:00 -5°C° 0 mm 5 m/S 747 mmHg 47%
    17:00 -5°C° 0 mm 4 m/S 748 mmHg 49%
    18:00 -7°C° 0 mm 4 m/S 748 mmHg 52%
    19:00 -7°C° 0 mm 3 m/S 748 mmHg 54%
    20:00 -7°C° 0 mm 3 m/S 749 mmHg 55%
    21:00 -7°C° 0 mm 3 m/S 749 mmHg 56%
    22:00 -8°C° 0 mm 3 m/S 749 mmHg 57%
    23:00 -7°C° 0 mm 2 m/S 749 mmHg 59%
    Mehr zeigen